Lake Almanor Weather Center

Moon Phase Calendar



Lake Almanor Water Level
Online Cameras

 


      

Current Conditions in Chester
4/18/2024 11:13:47 PM

44°F
Feels Like 43
Clouds
Humidity
84%
Pressure
30.03"
Wind
3.3 mph (NNW)
Dew Point
40°F
UV Index
0/10 (Low)
Visibility
6 mi

Hourly Forecast

Date & Time Thu, Apr 18
11:00 PM
Fri, Apr 19
12:00 AM
Fri, Apr 19
1:00 AM
Fri, Apr 19
2:00 AM
Fri, Apr 19
3:00 AM
Fri, Apr 19
4:00 AM
Fri, Apr 19
5:00 AM
Fri, Apr 19
6:00 AM
Fri, Apr 19
7:00 AM
Fri, Apr 19
8:00 AM
Fri, Apr 19
9:00 AM
Fri, Apr 19
10:00 AM
Fri, Apr 19
11:00 AM
Fri, Apr 19
12:00 PM
Fri, Apr 19
1:00 PM
Fri, Apr 19
2:00 PM
Fri, Apr 19
3:00 PM
Fri, Apr 19
4:00 PM
Fri, Apr 19
5:00 PM
Fri, Apr 19
6:00 PM
Fri, Apr 19
7:00 PM
Fri, Apr 19
8:00 PM
Fri, Apr 19
9:00 PM
Fri, Apr 19
10:00 PM
Fri, Apr 19
11:00 PM
Sat, Apr 20
12:00 AM
Sat, Apr 20
1:00 AM
Sat, Apr 20
2:00 AM
Sat, Apr 20
3:00 AM
Sat, Apr 20
4:00 AM
Sat, Apr 20
5:00 AM
Sat, Apr 20
6:00 AM
Sat, Apr 20
7:00 AM
Sat, Apr 20
8:00 AM
Sat, Apr 20
9:00 AM
Sat, Apr 20
10:00 AM
Sat, Apr 20
11:00 AM
Sat, Apr 20
12:00 PM
Sat, Apr 20
1:00 PM
Sat, Apr 20
2:00 PM
Sat, Apr 20
3:00 PM
Sat, Apr 20
4:00 PM
Sat, Apr 20
5:00 PM
Sat, Apr 20
6:00 PM
Sat, Apr 20
7:00 PM
Sat, Apr 20
8:00 PM
Sat, Apr 20
9:00 PM
Sat, Apr 20
10:00 PM
Condition
Clouds

Clouds

Clouds

Clouds

Clouds

Clouds

Clouds

Clouds

Clouds

Clouds

Clouds

Clouds

Clouds

Clouds

Clouds

Clouds

Clouds

Clouds

Clouds

Clear

Clear

Clear

Clear

Clear

Clouds

Clouds

Clouds

Clouds

Clouds

Clouds

Clouds

Clouds

Clouds

Clouds

Clouds

Clouds

Clouds

Clear

Clear

Clear

Clear

Clear

Clear

Clear

Clear

Clouds

Clouds

Clouds
Temperature 44°F43°F42°F41°F40°F39°F40°F39°F40°F47°F54°F60°F64°F66°F67°F67°F67°F66°F64°F62°F57°F50°F47°F45°F44°F43°F42°F42°F41°F42°F41°F41°F44°F49°F56°F62°F65°F67°F68°F69°F68°F67°F65°F62°F58°F50°F48°F45°F
Feels Like 43°F42°F40°F39°F38°F37°F40°F39°F40°F47°F52°F58°F62°F64°F64°F65°F65°F64°F62°F60°F55°F49°F45°F43°F42°F43°F42°F42°F41°F42°F41°F41°F44°F49°F54°F60°F63°F65°F66°F66°F66°F65°F62°F60°F56°F48°F47°F44°F
Cloudiness 99%97%97%91%91%91%93%99%94%74%60%52%45%13%15%17%18%16%14%0%0%2%3%4%16%83%45%63%72%78%81%100%100%100%100%91%76%3%3%3%4%4%5%5%9%38%54%51%
Visibility 6 mi6 mi6 mi6 mi6 mi6 mi6 mi6 mi6 mi6 mi6 mi6 mi6 mi6 mi6 mi6 mi6 mi6 mi6 mi6 mi6 mi6 mi6 mi6 mi6 mi6 mi6 mi6 mi6 mi6 mi6 mi6 mi6 mi6 mi6 mi6 mi6 mi6 mi6 mi6 mi6 mi6 mi6 mi6 mi6 mi6 mi6 mi6 mi
Precipitation 0%0%0%0%0%0%0%0%0%0%0%0%0%0%0%0%0%0%0%0%0%0%0%0%0%0%0%0%0%0%0%0%0%0%0%0%0%0%0%0%0%0%0%0%0%0%0%0%
Humidity 84%85%86%87%86%84%82%83%81%67%53%43%37%33%32%31%30%29%30%33%48%62%69%75%77%79%80%80%80%77%79%78%74%64%55%49%39%33%29%29%29%31%32%37%49%66%75%83%
Dew Point 40°F39°F38°F37°F36°F33°F33°F33°F34°F36°F37°F37°F37°F36°F35°F35°F34°F32°F32°F33°F37°F36°F36°F36°F36°F36°F35°F35°F34°F34°F34°F34°F35°F36°F39°F41°F39°F36°F34°F34°F34°F34°F33°F35°F38°F38°F39°F39°F
Pressure 30.03"30.03"30.03"30.06"30.06"30.06"30.03"30.03"30.06"30"29.97"29.94"29.91"29.88"29.85"29.85"29.85"29.85"29.88"29.88"29.91"29.94"29.97"30"30"30.03"30.03"30.03"30.03"30.03"30.06"30.06"30.06"30.06"30.03"30"30"29.97"29.97"29.97"29.97"29.97"29.97"30"30"30.06"30.09"30.12"
Wind Speed 3.3 mph3.5 mph3.4 mph3.2 mph3.1 mph3.2 mph2.9 mph2.6 mph2.6 mph1.4 mph0.6 mph1.2 mph2.8 mph4.8 mph7 mph9 mph9.4 mph9.8 mph8.8 mph7.4 mph4.2 mph3.7 mph3.8 mph4 mph3.9 mph2.8 mph2.6 mph2.2 mph2.6 mph2.4 mph2.3 mph2.1 mph2.1 mph0.5 mph1.3 mph2.4 mph4.6 mph6.5 mph8.7 mph10.4 mph10.7 mph10.7 mph10.2 mph8.8 mph5.7 mph3.8 mph3.4 mph3.7 mph
Wind
Direction
336°
NNW
338°
NNW
346°
NNW
351°
N
349°
N
348°
NNW
352°
N
356°
N
349°
N
343°
NNW
312°
NW
270°
W
280°
W
300°
WNW
307°
NW
301°
WNW
290°
WNW
282°
WNW
279°
W
276°
W
259°
W
277°
W
307°
NW
316°
NW
322°
NW
335°
NNW
344°
NNW

N
346°
NNW
351°
N
344°
NNW
353°
N
353°
N
323°
NW
178°
S
204°
SSW
206°
SSW
221°
SW
241°
WSW
249°
WSW
249°
WSW
252°
WSW
254°
WSW
254°
WSW
252°
WSW
257°
WSW
276°
W
296°
WNW

Daily Forecast

Date High Low Precip. Humidity
Today
Apr 18

Clouds
66 °F
32 °F
0%
35%
Friday
Apr 19

Clouds
67 °F
39 °F
0%
32%
Saturday
Apr 20

Clear
69 °F
41 °F
0%
29%
Sunday
Apr 21

Clouds
75 °F
39 °F
0%
22%
Monday
Apr 22

Clouds
74 °F
41 °F
0%
15%
Tuesday
Apr 23

Clouds
63 °F
39 °F
10%
35%
Wednesday
Apr 24

Clouds
60 °F
35 °F
0%
34%
Thursday
Apr 25

Snow
41 °F
37 °F
100%
98%
Friday
Apr 26

Rain
50 °F
33 °F
20%
48%
Saturday
Apr 27

Clouds
66 °F
29 °F
0%
20%
Sunday
Apr 28

Clear
69 °F
36 °F
0%
23%
Monday
Apr 29

Clear
52 °F
31 °F
0%
26%
Tuesday
Apr 30

Clear
60 °F
29 °F
0%
19%
Wednesday
May 1

Clear
64 °F
31 °F
0%
23%
Thursday
May 2

Clouds
67 °F
35 °F
0%
24%
Friday
May 3

Clouds
70 °F
36 °F
0%
18%

Temperature 8-14 Day Outlook



Precipitation 8-14 Day Outlook




Quick Links
Lake Almanor News
Lake Almanor Photos
Lake Almanor Videos




About Us
Contact Us
Site Map
Search Site
Advertise With Us
   
Almanor.LakesOnline.com
THE LAKE ALMANOR WEBSITE

Copyright 2024, Lakes Online
Privacy    |    Legal